Notices

What's New in latest Release from April 7th, 2021:

- Updated Glossary, including Speed of Maximum Gust, and Total Hourly Precipitation

- Updated national and regional climate services offices contacts and prices information

- Addition of station inventory lists for 1981-2010, 1971-2000, and 1961-1990 Normals.

If you haven't already, please take our survey and provide feedback about our website: https://eccc.sondage-survey.ca/f/LanguageSelection.aspx?s=442ca660-fcf1-47c0-95a9-59707d6fd709

Hourly Data Report for December 15, 2020

MUSKOKA
ONTARIO
Current Station Operator: NAVCAN

44°58'29.000" N
79°18'12.000" W
281.90 m
6115529
71532
YQA

Download Data

Hourly Data (December 2020)
Hourly Data Report for December 15, 2020
TIME
LST
Temp Definition
°C
Dew Point Definition
°C
Rel Hum Definition
%
Precip. Amount Definition
mm

Wind Dir Definition
10's deg

Wind Spd Definition
km/h
Visibility Definition
km
Stn Press Definition
kPa
Hmdx Definition


Wind Chill Definition


Weather Definition


00:00 -6.6 -11.6 68 0.0 33 22 16.1 98.57   -14 Snow
01:00 -8.7 -12.5 74 0.0 32 17 16.1 98.63   -16 LegendNANA
02:00 -10.2 -13.3 78 0.0 33 21 16.1 98.75   -18 LegendNANA
03:00 -10.9 -14.3 77 0.0 34 17 16.1 98.85   -18 LegendNANA
04:00 -12.0 -15.1 78 0.0 33 15 16.1 98.91   -19 LegendNANA
05:00 -12.3 -14.9 81 0.0 34 13 16.1 98.96   -19 LegendNANA
06:00 -13.6 -15.8 84 0.0 34 11 16.1 99.09   -20 LegendNANA
07:00 -14.7 -17.1 82 0.0 34 8 16.1 99.18   -20 LegendNANA
08:00 -14.9 -17.9 78 0.0 34 17 16.1 99.24   -23 LegendNANA
09:00 -14.1 -17.6 75 0.0 33 15 16.1 99.36   -22 LegendNANA
10:00 -13.0 -17.4 70 0.0 34 11 16.1 99.43   -19 LegendNANA
11:00 -11.8 -17.3 64 0.0 33 11 16.1 99.44   -18 LegendNANA
12:00 -10.9 -17.9 57 0.0 33 11 16.1 99.44   -17 LegendNANA
13:00 -10.3 -18.1 53 0.0 33 18 16.1 99.42   -18 LegendNANA
14:00 -9.6 -18.6 49 0.0 30 11 16.1 99.44   -15 LegendNANA
15:00 -9.6 -18.7 48 0.0 31 5 16.1 99.46   -12 LegendNANA
16:00 -10.5 -18.0 55 0.0 34 9 16.1 99.51   -15 LegendNANA
17:00 -12.2 -17.7 64 0.0 35 4 16.1 99.55   -15 LegendNANA
18:00 -14.4 -16.8 82 0.0   0 16.1 99.56     LegendNANA
19:00 -15.1 -17.7 81 0.0 LegendMM 4 16.1 99.57   -18 LegendNANA
20:00 -14.7 -17.0 83 0.0 LegendMM 4 16.1 99.58   -18 LegendNANA
21:00 -13.1 -17.0 73 0.0 1 5 16.1 99.55   -16 LegendNANA
22:00 -12.8 -16.9 72 0.0 LegendMM 4 16.1 99.51   -15 LegendNANA
23:00 -13.0 -16.3 77 0.0 5 5 16.1 99.56   -16 LegendNANA

Notes on Data Quality.

Legend

  • E = Estimated
  • M = Missing
  • NA = Not Available*
  • [empty] = Indicates an unobserved value
Date modified: